Location: Vancouver
(49.2500°N, 123.1330°W)
Time: 15:48:23
(UTC-07:00)

ISS - Visible Passes

Search period start: 25 October 2014 00:00
Search period end: 03 November 2014 23:00
Orbit: 412 x 416 km, 51.6° (Epoch: 25 October)

Date Brightness Start Highest point End Pass type
(mag) Time Alt. Az. Time Alt. Az. Time Alt. Az.
25 Oct -1.9 18:55:35 10° W 18:58:43 38° SSW 19:01:50 10° SE visible
26 Oct -0.2 19:44:21 10° WSW 19:45:42 12° SW 19:47:03 10° SSW visible
27 Oct -0.5 18:54:16 10° W 18:56:41 19° SW 18:59:05 10° S visible
